Theta_e
304 308 318 321 321 321 321 321 322 321 321 321 321 321 320 319 317 316 313 312 311 311
303 305 308 320 321 321 322 321 321 321 320 320 320 320 320 319 317 317 315 314 312 312
302 305 308 312 321 321 321 321 320 320 320 320 320 320 320 319 319 318 317 316 314 312
301 305 310 313 320 321 321 321 321 321 320 320 320 320 319 318 319 318 317 316 315 314
298 300 306 307 309 312 309 309 308 309 306 304 304 306 309 314 315 315 313 311 312 312
294 295 296 299 301 304 304 303 302 300 298 298 297 298 300 303 303 303 302 302 302 301
291 293 294 295 296 297 298 297 296 295 294 293 292 293 294 297 297 297 297 297 296 295
289 290 291 292 292 292 292 293 292 291 291 291 291 291 291 292 293 292 292 292 292 292
287 286 286 288 289 289 289 289 289 288 289 289 290 291 290 290 290 290 289 289 290 290
285 285 285 285 285 286 285 285 285 286 286 287 288 290 290 289 289 289 289 288 288 288
284 284 284 283 283 283 283 283 283 283 284 285 286 288 288 288 288 288 288 287 287 286
283 282 282 282 282 282 282 282 281 281 282 282 284 287 287 286 285 285 286 286 286 286
283 282 281 281 281 281 281 281 281 281 281 282 283 286 286 285 284 283 284 285 285 285
281 281 281 281 281 280 280 280 279 279 280 280 282 283 285 286 283 282 282 283 282 284
Wind_Speed
10 5 6 9 7 7 8 9 9 11 11 12 11 11 10 8 9 11 11 14 12 10
9 9 8 8 9 8 9 7 8 10 12 12 12 11 12 10 11 9 10 13 13 12
11 10 10 8 8 8 7 9 9 10 11 10 11 12 11 10 9 11 11 9 10 11
10 12 9 7 7 7 8 8 8 9 8 9 10 9 8 10 11 10 11 10 12 15
10 12 10 7 7 8 9 9 9 9 10 10 11 10 8 3 4 4 4 4 3 6
12 12 12 11 9 11 10 10 12 12 11 11 11 9 8 8 8 7 9 9 8 9
14 13 11 11 10 11 12 13 12 12 12 12 11 11 9 9 9 9 9 10 9 10
13 14 13 11 12 12 14 12 12 12 13 12 13 10 9 9 9 9 9 10 10 10
11 15 16 13 11 11 12 13 12 12 12 12 10 17 17 10 9 10 11 8 8 7
12 15 13 11 11 12 11 12 13 11 11 13 12 20 16 14 9 8 9 8 8 7
13 11 7 9 9 9 9 12 10 10 10 12 12 21 19 16 9 7 8 9 10 9
11 10 9 10 9 9 8 10 10 9 11 11 11 21 20 11 8 7 8 7 9 9
8 8 8 9 9 8 8 9 6 9 10 13 10 21 21 13 6 8 6 6 7 14
8 9 7 6 6 6 7 7 8 9 8 9 10 14 21 21 8 7 7 8 7 7
Wind_Direction
304 291 271 216 212 201 205 213 201 210 218 217 213 213 214 216 217 220 223 227 224 227
304 295 282 253 205 203 204 197 190 199 211 216 215 216 217 218 218 217 218 227 225 224
304 293 272 277 222 202 199 188 197 199 211 215 219 226 225 225 220 220 230 229 228 228
329 318 250 244 245 195 196 199 199 204 208 215 223 223 223 220 231 239 238 221 223 233
3 4 19 63 55 81 81 64 67 56 64 65 55 39 30 0 350 314 326 15 347 318
15 22 24 22 36 61 70 73 66 66 61 52 51 42 37 36 53 58 65 38 23 20
19 16 27 35 35 53 59 64 68 66 63 54 44 39 29 45 45 49 40 44 43 37
26 24 24 29 43 55 57 58 60 64 62 55 48 33 28 47 48 50 48 41 34 35
32 39 22 20 30 54 59 63 58 56 57 54 47 35 43 55 61 52 43 30 30 23
33 45 26 19 21 45 55 68 61 54 50 52 42 33 38 35 45 51 42 28 23 23
44 38 23 39 25 35 53 61 60 51 47 49 42 35 39 36 43 41 39 34 30 27
36 36 26 36 26 23 45 55 56 49 46 43 36 37 41 39 43 39 41 34 29 20
28 40 35 28 32 23 38 49 53 59 50 43 35 35 37 39 27 36 37 32 28 21
43 45 30 39 35 36 45 50 46 53 47 36 21 29 34 35 27 25 21 22 10 8